Time,TemperatureF,DewpointF,PressureIn,WindDirection,WindDirectionDegrees,WindSpeedMPH,WindSpeedGustMPH,Humidity,HourlyPrecipIn,Conditions,Clouds,dailyrainin,SoftwareType,DateUTC
2013-02-11 00:00:00,44.1,40.2,30.25,ESE,103,0.0,2.0,86,0.00,,---,0.00,VWS V14.01,2013-02-11 05:00:00,
2013-02-11 00:05:00,44.0,40.1,30.25,ESE,103,0.0,0.0,86,0.00,,---,0.00,VWS V14.01,2013-02-11 05:05:00,
2013-02-11 00:10:00,44.0,40.1,30.24,ESE,103,0.0,0.0,86,0.00,,---,0.00,VWS V14.01,2013-02-11 05:10:00,
2013-02-11 00:15:00,44.0,39.8,30.24,ESE,109,1.0,2.0,85,0.00,,---,0.00,VWS V14.01,2013-02-11 05:15:00,
2013-02-11 00:20:00,44.0,39.8,30.23,ESE,109,1.0,2.0,85,0.00,,---,0.00,VWS V14.01,2013-02-11 05:20:00,
2013-02-11 00:25:00,44.1,39.9,30.24,ESE,109,0.0,2.0,85,0.00,,---,0.00,VWS V14.01,2013-02-11 05:25:00,
2013-02-11 00:30:00,44.1,39.9,30.23,ESE,109,0.0,2.0,85,0.00,,---,0.00,VWS V14.01,2013-02-11 05:30:00,
2013-02-11 00:35:00,44.2,40.3,30.23,ESE,109,0.0,0.0,86,0.00,,---,0.00,VWS V14.01,2013-02-11 05:35:00,
2013-02-11 00:40:00,44.2,40.0,30.23,ESE,103,0.0,2.0,85,0.00,,---,0.00,VWS V14.01,2013-02-11 05:40:00,
2013-02-11 00:45:00,44.3,40.1,30.23,ESE,104,1.0,3.0,85,0.01,,---,0.01,VWS V14.01,2013-02-11 05:45:00,
2013-02-11 00:50:00,44.4,40.2,30.22,South,174,1.0,3.0,85,0.01,,---,0.01,VWS V14.01,2013-02-11 05:50:00,
2013-02-11 00:55:00,44.4,40.5,30.22,SSE,168,1.0,3.0,86,0.01,,---,0.01,VWS V14.01,2013-02-11 05:55:00,
2013-02-11 01:00:00,44.5,40.3,30.22,SSE,168,0.0,3.0,85,0.01,,---,0.01,VWS V14.01,2013-02-11 06:00:00,
2013-02-11 01:05:00,44.5,40.6,30.21,SSE,157,1.0,2.0,86,0.01,,---,0.01,VWS V14.01,2013-02-11 06:05:00,
2013-02-11 01:10:00,44.5,40.6,30.21,SSE,154,0.0,2.0,86,0.01,,---,0.01,VWS V14.01,2013-02-11 06:10:00,
2013-02-11 01:15:00,44.5,40.6,30.21,SSE,154,0.0,2.0,86,0.01,,---,0.01,VWS V14.01,2013-02-11 06:15:00,
2013-02-11 01:20:00,44.5,40.6,30.20,SE,141,1.0,2.0,86,0.01,,---,0.01,VWS V14.01,2013-02-11 06:20:00,
2013-02-11 01:25:00,44.6,40.7,30.20,South,184,1.0,3.0,86,0.01,,---,0.01,VWS V14.01,2013-02-11 06:25:00,
2013-02-11 01:30:00,44.6,40.7,30.19,South,188,0.0,3.0,86,0.01,,---,0.01,VWS V14.01,2013-02-11 06:30:00,
2013-02-11 01:35:00,44.7,40.8,30.19,SSW,211,0.0,4.0,86,0.01,,---,0.01,VWS V14.01,2013-02-11 06:35:00,
2013-02-11 01:40:00,44.8,40.9,30.19,South,188,0.0,4.0,86,0.01,,---,0.01,VWS V14.01,2013-02-11 06:40:00,
2013-02-11 01:45:00,44.9,41.3,30.19,South,181,0.0,4.0,87,0.01,,---,0.01,VWS V14.01,2013-02-11 06:45:00,
2013-02-11 01:50:00,45.0,41.4,30.19,South,181,0.0,4.0,87,0.01,,---,0.01,VWS V14.01,2013-02-11 06:50:00,
2013-02-11 01:55:00,45.0,41.4,30.19,South,181,0.0,4.0,87,0.01,,---,0.01,VWS V14.01,2013-02-11 06:55:00,
2013-02-11 02:00:00,45.1,41.5,30.19,SSW,202,0.0,4.0,87,0.01,,---,0.01,VWS V14.01,2013-02-11 07:00:00,
2013-02-11 02:05:00,45.2,41.6,30.19,SSW,202,1.0,3.0,87,0.00,,---,0.01,VWS V14.01,2013-02-11 07:05:00,
2013-02-11 02:10:00,45.4,41.8,30.20,South,190,0.0,4.0,87,0.00,,---,0.01,VWS V14.01,2013-02-11 07:10:00,
2013-02-11 02:15:00,45.6,42.0,30.20,South,184,0.0,4.0,87,0.00,,---,0.01,VWS V14.01,2013-02-11 07:15:00,
2013-02-11 02:20:00,45.8,42.2,30.19,SSW,202,0.0,4.0,87,0.00,,---,0.01,VWS V14.01,2013-02-11 07:20:00,
2013-02-11 02:25:00,45.9,42.3,30.19,SW,221,0.0,4.0,87,0.00,,---,0.01,VWS V14.01,2013-02-11 07:25:00,
2013-02-11 02:30:00,46.0,42.3,30.18,SSW,193,1.0,4.0,87,0.00,,---,0.01,VWS V14.01,2013-02-11 07:30:00,
2013-02-11 02:35:00,46.2,42.5,30.19,South,181,2.0,6.0,87,0.00,,---,0.01,VWS V14.01,2013-02-11 07:35:00,
2013-02-11 02:40:00,46.4,42.8,30.18,South,181,0.0,6.0,87,0.00,,---,0.01,VWS V14.01,2013-02-11 07:40:00,
2013-02-11 02:45:00,46.5,42.8,30.18,South,173,0.0,6.0,87,0.00,,---,0.01,VWS V14.01,2013-02-11 07:45:00,
2013-02-11 02:50:00,46.6,42.9,30.18,SSW,204,1.0,6.0,87,0.00,,---,0.01,VWS V14.01,2013-02-11 07:50:00,
2013-02-11 02:55:00,46.7,43.3,30.18,South,186,0.0,6.0,88,0.00,,---,0.01,VWS V14.01,2013-02-11 07:55:00,
2013-02-11 03:00:00,46.8,43.4,30.18,SSW,195,1.0,6.0,88,0.00,,---,0.01,VWS V14.01,2013-02-11 08:00:00,
2013-02-11 03:05:00,47.0,43.6,30.18,SSE,163,1.0,3.0,88,0.00,,---,0.01,VWS V14.01,2013-02-11 08:05:00,
2013-02-11 03:10:00,47.1,43.7,30.18,South,169,0.0,3.0,88,0.00,,---,0.01,VWS V14.01,2013-02-11 08:10:00,
2013-02-11 03:15:00,47.3,43.9,30.17,SSW,192,0.0,3.0,88,0.00,,---,0.01,VWS V14.01,2013-02-11 08:15:00,
2013-02-11 03:20:00,47.4,44.0,30.17,South,184,0.0,3.0,88,0.00,,---,0.01,VWS V14.01,2013-02-11 08:20:00,
2013-02-11 03:25:00,47.4,44.0,30.17,South,188,0.0,3.0,88,0.00,,---,0.01,VWS V14.01,2013-02-11 08:25:00,
2013-02-11 03:30:00,47.5,44.1,30.17,South,190,0.0,3.0,88,0.00,,---,0.01,VWS V14.01,2013-02-11 08:30:00,
2013-02-11 03:35:00,47.5,44.1,30.16,South,190,0.0,2.0,88,0.00,,---,0.01,VWS V14.01,2013-02-11 08:35:00,
2013-02-11 03:40:00,47.6,44.2,30.15,South,190,0.0,2.0,88,0.00,,---,0.01,VWS V14.01,2013-02-11 08:40:00,
2013-02-11 03:45:00,47.6,44.2,30.15,South,190,0.0,2.0,88,0.00,,---,0.01,VWS V14.01,2013-02-11 08:45:00,
2013-02-11 03:50:00,47.6,44.2,30.15,South,190,0.0,2.0,88,0.00,,---,0.01,VWS V14.01,2013-02-11 08:50:00,
2013-02-11 03:55:00,47.6,44.2,30.14,South,190,0.0,2.0,88,0.00,,---,0.01,VWS V14.01,2013-02-11 08:55:00,
2013-02-11 04:00:00,47.6,44.2,30.14,South,190,0.0,2.0,88,0.00,,---,0.01,VWS V14.01,2013-02-11 09:00:00,
2013-02-11 04:05:00,47.6,44.2,30.14,South,190,0.0,0.0,88,0.00,,---,0.01,VWS V14.01,2013-02-11 09:05:00,
2013-02-11 04:10:00,47.6,44.2,30.14,South,190,0.0,0.0,88,0.00,,---,0.01,VWS V14.01,2013-02-11 09:10:00,
2013-02-11 04:15:00,47.6,44.5,30.14,South,190,0.0,0.0,89,0.00,,---,0.01,VWS V14.01,2013-02-11 09:15:00,
2013-02-11 04:20:00,47.6,44.5,30.14,South,190,0.0,0.0,89,0.00,,---,0.01,VWS V14.01,2013-02-11 09:20:00,
2013-02-11 04:25:00,47.6,44.5,30.14,South,190,0.0,0.0,89,0.00,,---,0.01,VWS V14.01,2013-02-11 09:25:00,
2013-02-11 04:30:00,47.7,44.6,30.14,South,190,0.0,0.0,89,0.00,,---,0.01,VWS V14.01,2013-02-11 09:30:00,
2013-02-11 04:35:00,47.9,45.1,30.14,South,190,0.0,2.0,90,0.00,,---,0.01,VWS V14.01,2013-02-11 09:35:00,
2013-02-11 04:40:00,48.0,45.2,30.14,South,182,0.0,2.0,90,0.00,,---,0.01,VWS V14.01,2013-02-11 09:40:00,
2013-02-11 04:45:00,48.1,45.3,30.14,South,181,1.0,2.0,90,0.00,,---,0.01,VWS V14.01,2013-02-11 09:45:00,
2013-02-11 04:50:00,48.2,45.4,30.14,SSW,196,0.0,4.0,90,0.00,,---,0.01,VWS V14.01,2013-02-11 09:50:00,
2013-02-11 04:55:00,48.2,45.4,30.14,SSW,196,0.0,4.0,90,0.00,,---,0.01,VWS V14.01,2013-02-11 09:55:00,
2013-02-11 05:00:00,48.2,45.4,30.14,SSW,194,1.0,4.0,90,0.00,,---,0.01,VWS V14.01,2013-02-11 10:00:00,
2013-02-11 05:05:00,48.3,45.5,30.13,SSW,194,0.0,1.0,90,0.00,,---,0.01,VWS V14.01,2013-02-11 10:05:00,
2013-02-11 05:10:00,48.3,45.5,30.14,SSW,194,0.0,1.0,90,0.00,,---,0.01,VWS V14.01,2013-02-11 10:10:00,
2013-02-11 05:15:00,48.3,45.5,30.13,SSW,194,0.0,1.0,90,0.00,,---,0.01,VWS V14.01,2013-02-11 10:15:00,
2013-02-11 05:20:00,48.3,45.5,30.13,SSW,194,0.0,1.0,90,0.00,,---,0.01,VWS V14.01,2013-02-11 10:20:00,
2013-02-11 05:25:00,48.3,45.5,30.13,SSW,194,0.0,1.0,90,0.00,,---,0.01,VWS V14.01,2013-02-11 10:25:00,
2013-02-11 05:30:00,48.3,45.5,30.13,SSW,194,0.0,1.0,90,0.00,,---,0.01,VWS V14.01,2013-02-11 10:30:00,
2013-02-11 05:35:00,48.4,45.6,30.13,SSW,194,0.0,0.0,90,0.00,,---,0.01,VWS V14.01,2013-02-11 10:35:00,
2013-02-11 05:40:00,48.4,45.6,30.13,SSW,194,0.0,0.0,90,0.00,,---,0.01,VWS V14.01,2013-02-11 10:40:00,
2013-02-11 05:45:00,48.4,45.6,30.13,SSW,194,0.0,0.0,90,0.00,,---,0.01,VWS V14.01,2013-02-11 10:45:00,
2013-02-11 05:50:00,48.4,45.6,30.13,South,188,0.0,0.0,90,0.00,,---,0.01,VWS V14.01,2013-02-11 10:50:00,
2013-02-11 05:55:00,48.4,45.6,30.14,South,188,0.0,0.0,90,0.00,,---,0.01,VWS V14.01,2013-02-11 10:55:00,
2013-02-11 06:00:00,48.5,45.7,30.14,South,188,0.0,0.0,90,0.00,,---,0.01,VWS V14.01,2013-02-11 11:00:00,
2013-02-11 06:05:00,48.6,46.1,30.13,South,188,0.0,0.0,91,0.00,,---,0.01,VWS V14.01,2013-02-11 11:05:00,
2013-02-11 06:10:00,48.6,46.1,30.13,South,188,0.0,1.0,91,0.00,,---,0.01,VWS V14.01,2013-02-11 11:10:00,
2013-02-11 06:15:00,48.7,45.9,30.13,South,188,0.0,1.0,90,0.00,,---,0.01,VWS V14.01,2013-02-11 11:15:00,
2013-02-11 06:20:00,48.7,46.2,30.12,South,188,0.0,1.0,91,0.00,,---,0.01,VWS V14.01,2013-02-11 11:20:00,
2013-02-11 06:25:00,48.8,46.3,30.13,South,188,0.0,1.0,91,0.00,,---,0.01,VWS V14.01,2013-02-11 11:25:00,
2013-02-11 06:30:00,48.8,46.3,30.12,South,188,0.0,1.0,91,0.00,,---,0.01,VWS V14.01,2013-02-11 11:30:00,
2013-02-11 06:35:00,49.0,46.5,30.12,South,188,0.0,0.0,91,0.00,,---,0.01,VWS V14.01,2013-02-11 11:35:00,
2013-02-11 06:40:00,49.2,47.0,30.13,South,188,0.0,2.0,92,0.00,,---,0.01,VWS V14.01,2013-02-11 11:40:00,
2013-02-11 06:45:00,49.2,47.0,30.13,South,188,0.0,2.0,92,0.00,,---,0.01,VWS V14.01,2013-02-11 11:45:00,
2013-02-11 06:50:00,49.3,47.1,30.12,South,188,0.0,2.0,92,0.00,,---,0.01,VWS V14.01,2013-02-11 11:50:00,
2013-02-11 06:55:00,49.2,46.7,30.12,South,188,0.0,2.0,91,0.00,,---,0.01,VWS V14.01,2013-02-11 11:55:00,
2013-02-11 07:00:00,49.2,46.7,30.12,South,188,0.0,2.0,91,0.00,,---,0.01,VWS V14.01,2013-02-11 12:00:00,
2013-02-11 07:05:00,49.2,47.0,30.12,South,188,0.0,0.0,92,0.00,,---,0.01,VWS V14.01,2013-02-11 12:05:00,
2013-02-11 07:10:00,49.2,47.0,30.12,South,188,0.0,0.0,92,0.00,,---,0.01,VWS V14.01,2013-02-11 12:10:00,
2013-02-11 07:15:00,49.2,47.0,30.12,South,188,0.0,0.0,92,0.00,,---,0.01,VWS V14.01,2013-02-11 12:15:00,
2013-02-11 07:20:00,49.2,47.0,30.12,South,188,0.0,0.0,92,0.00,,---,0.01,VWS V14.01,2013-02-11 12:20:00,
2013-02-11 07:25:00,49.2,47.0,30.12,South,188,0.0,0.0,92,0.01,,---,0.02,VWS V14.01,2013-02-11 12:25:00,
2013-02-11 07:30:00,49.2,47.0,30.12,South,188,0.0,0.0,92,0.01,,---,0.02,VWS V14.01,2013-02-11 12:30:00,
2013-02-11 07:35:00,49.2,47.0,30.12,South,188,0.0,0.0,92,0.01,,---,0.02,VWS V14.01,2013-02-11 12:35:00,
2013-02-11 07:40:00,49.3,47.1,30.11,South,188,0.0,0.0,92,0.01,,---,0.02,VWS V14.01,2013-02-11 12:40:00,
2013-02-11 07:45:00,49.4,47.5,30.12,South,188,0.0,0.0,93,0.01,,---,0.02,VWS V14.01,2013-02-11 12:45:00,
2013-02-11 07:50:00,49.5,47.6,30.12,South,188,0.0,0.0,93,0.02,,---,0.03,VWS V14.01,2013-02-11 12:50:00,
2013-02-11 07:55:00,49.6,47.7,30.12,South,180,1.0,2.0,93,0.02,,---,0.03,VWS V14.01,2013-02-11 12:55:00,
2013-02-11 08:00:00,49.8,47.9,30.12,South,181,0.0,2.0,93,0.02,,---,0.03,VWS V14.01,2013-02-11 13:00:00,
2013-02-11 08:05:00,50.0,48.1,30.11,South,190,1.0,2.0,93,0.02,,---,0.03,VWS V14.01,2013-02-11 13:05:00,
2013-02-11 08:10:00,50.3,48.4,30.11,South,178,1.0,2.0,93,0.02,,---,0.03,VWS V14.01,2013-02-11 13:10:00,
2013-02-11 08:15:00,50.7,48.8,30.10,SSW,196,1.0,2.0,93,0.02,,---,0.03,VWS V14.01,2013-02-11 13:15:00,
2013-02-11 08:20:00,51.6,49.9,30.10,SSW,195,2.0,6.0,94,0.02,,---,0.03,VWS V14.01,2013-02-11 13:20:00,
2013-02-11 08:25:00,52.5,50.8,30.09,SSE,168,0.0,6.0,94,0.02,,---,0.03,VWS V14.01,2013-02-11 13:25:00,
2013-02-11 08:30:00,53.2,51.5,30.09,SSW,196,1.0,7.0,94,0.03,,---,0.04,VWS V14.01,2013-02-11 13:30:00,
2013-02-11 08:35:00,54.2,52.5,30.08,SSW,205,2.0,4.0,94,0.02,,---,0.04,VWS V14.01,2013-02-11 13:35:00,
2013-02-11 08:40:00,54.8,53.1,30.08,South,183,3.0,7.0,94,0.02,,---,0.04,VWS V14.01,2013-02-11 13:40:00,
2013-02-11 08:45:00,55.2,53.5,30.08,SSE,166,2.0,7.0,94,0.02,,---,0.04,VWS V14.01,2013-02-11 13:45:00,
2013-02-11 08:50:00,55.6,53.9,30.07,SSE,165,3.0,7.0,94,0.02,,---,0.04,VWS V14.01,2013-02-11 13:50:00,
2013-02-11 08:55:00,55.9,54.2,30.07,South,186,4.0,7.0,94,0.02,,---,0.04,VWS V14.01,2013-02-11 13:55:00,
2013-02-11 09:00:00,56.1,54.4,30.07,South,173,2.0,7.0,94,0.02,,---,0.04,VWS V14.01,2013-02-11 14:00:00,
2013-02-11 09:05:00,56.3,54.6,30.08,SSW,207,3.0,9.0,94,0.01,,---,0.04,VWS V14.01,2013-02-11 14:05:00,
2013-02-11 09:10:00,56.4,54.7,30.07,North,355,1.0,9.0,94,0.01,,---,0.04,VWS V14.01,2013-02-11 14:10:00,
2013-02-11 09:15:00,56.6,54.9,30.07,SW,219,1.0,9.0,94,0.01,,---,0.04,VWS V14.01,2013-02-11 14:15:00,
2013-02-11 09:20:00,56.7,55.0,30.07,SSW,200,4.0,10.0,94,0.01,,---,0.04,VWS V14.01,2013-02-11 14:20:00,
2013-02-11 09:25:00,56.9,55.2,30.07,SW,225,1.0,10.0,94,0.01,,---,0.04,VWS V14.01,2013-02-11 14:25:00,
2013-02-11 09:30:00,57.0,55.3,30.07,WSW,250,1.0,10.0,94,0.01,,---,0.04,VWS V14.01,2013-02-11 14:30:00,
2013-02-11 09:35:00,57.2,55.5,30.07,SSW,205,2.0,5.0,94,0.00,,---,0.04,VWS V14.01,2013-02-11 14:35:00,
2013-02-11 09:40:00,57.3,55.6,30.07,SSW,202,2.0,5.0,94,0.00,,---,0.04,VWS V14.01,2013-02-11 14:40:00,
2013-02-11 09:45:00,57.5,55.8,30.07,South,174,2.0,7.0,94,0.00,,---,0.04,VWS V14.01,2013-02-11 14:45:00,
2013-02-11 09:50:00,57.7,55.7,30.07,SW,236,2.0,8.0,93,0.00,,---,0.04,VWS V14.01,2013-02-11 14:50:00,
2013-02-11 09:55:00,57.8,55.8,30.07,SW,221,1.0,8.0,93,0.00,,---,0.04,VWS V14.01,2013-02-11 14:55:00,
2013-02-11 10:00:00,57.9,55.9,30.08,SSW,205,4.0,8.0,93,0.00,,---,0.04,VWS V14.01,2013-02-11 15:00:00,
2013-02-11 10:05:00,58.0,56.0,30.08,West,265,4.0,5.0,93,0.00,,---,0.04,VWS V14.01,2013-02-11 15:05:00,
2013-02-11 10:10:00,58.1,55.8,30.08,SSW,207,1.0,5.0,92,0.00,,---,0.04,VWS V14.01,2013-02-11 15:10:00,
2013-02-11 10:15:00,58.2,55.9,30.09,SSW,199,3.0,5.0,92,0.00,,---,0.04,VWS V14.01,2013-02-11 15:15:00,
2013-02-11 10:20:00,58.3,56.0,30.08,NE,49,2.0,6.0,92,0.00,,---,0.04,VWS V14.01,2013-02-11 15:20:00,
2013-02-11 10:25:00,58.3,56.0,30.08,WSW,242,2.0,7.0,92,0.00,,---,0.04,VWS V14.01,2013-02-11 15:25:00,
2013-02-11 10:30:00,58.4,56.1,30.08,SSW,209,4.0,7.0,92,0.00,,---,0.04,VWS V14.01,2013-02-11 15:30:00,
2013-02-11 10:35:00,58.5,56.2,30.08,WSW,238,2.0,4.0,92,0.00,,---,0.04,VWS V14.01,2013-02-11 15:35:00,
2013-02-11 10:40:00,58.5,56.2,30.08,SW,222,2.0,5.0,92,0.00,,---,0.04,VWS V14.01,2013-02-11 15:40:00,
2013-02-11 10:44:00,58.4,56.1,30.08,SW,222,1.0,5.0,92,0.00,,---,0.04,VWS V14.01,2013-02-11 15:44:00,
2013-02-11 10:49:00,58.4,56.1,30.07,SW,236,2.0,5.0,92,0.00,,---,0.04,VWS V14.01,2013-02-11 15:49:00,
2013-02-11 10:54:00,58.4,56.4,30.07,SW,229,2.0,5.0,93,0.00,,---,0.04,VWS V14.01,2013-02-11 15:54:00,
2013-02-11 10:59:00,58.4,56.4,30.06,SW,227,2.0,5.0,93,0.00,,---,0.04,VWS V14.01,2013-02-11 15:59:00,
2013-02-11 11:04:00,58.4,56.4,30.06,WSW,243,2.0,2.0,93,0.00,,---,0.04,VWS V14.01,2013-02-11 16:04:00,
2013-02-11 11:09:00,58.4,56.4,30.06,SW,223,2.0,6.0,93,0.00,,---,0.04,VWS V14.01,2013-02-11 16:09:00,
2013-02-11 11:14:00,58.5,56.5,30.06,South,191,3.0,6.0,93,0.00,,---,0.04,VWS V14.01,2013-02-11 16:14:00,
2013-02-11 11:19:00,58.5,56.5,30.05,SW,228,2.0,6.0,93,0.00,,---,0.04,VWS V14.01,2013-02-11 16:19:00,
2013-02-11 11:24:00,58.6,56.6,30.05,SSW,194,1.0,6.0,93,0.00,,---,0.04,VWS V14.01,2013-02-11 16:24:00,
2013-02-11 11:29:00,58.7,56.7,30.04,SW,225,0.0,6.0,93,0.00,,---,0.04,VWS V14.01,2013-02-11 16:29:00,
2013-02-11 11:34:00,58.7,56.7,30.05,SSW,202,1.0,5.0,93,0.00,,---,0.04,VWS V14.01,2013-02-11 16:34:00,
2013-02-11 11:39:00,59.0,57.0,30.04,SW,220,1.0,6.0,93,0.00,,---,0.04,VWS V14.01,2013-02-11 16:39:00,
2013-02-11 11:44:00,59.0,57.0,30.04,SSW,201,3.0,6.0,93,0.00,,---,0.04,VWS V14.01,2013-02-11 16:44:00,
2013-02-11 11:49:00,59.0,57.0,30.04,SW,215,2.0,6.0,93,0.00,,---,0.04,VWS V14.01,2013-02-11 16:49:00,
2013-02-11 11:54:00,59.0,57.0,30.03,SW,218,1.0,6.0,93,0.00,,---,0.04,VWS V14.01,2013-02-11 16:54:00,
2013-02-11 11:59:00,59.0,56.7,30.03,South,171,11.0,11.0,92,0.00,,---,0.04,VWS V14.01,2013-02-11 16:59:00,
2013-02-11 12:04:00,59.1,56.8,30.03,WSW,238,1.0,4.0,92,0.00,,---,0.04,VWS V14.01,2013-02-11 17:04:00,
2013-02-11 12:09:00,59.3,57.0,30.02,South,169,8.0,8.0,92,0.00,,---,0.04,VWS V14.01,2013-02-11 17:09:00,
2013-02-11 12:14:00,59.4,57.1,30.02,SW,225,2.0,8.0,92,0.00,,---,0.04,VWS V14.01,2013-02-11 17:14:00,
2013-02-11 12:19:00,59.5,57.2,30.02,SSW,205,3.0,8.0,92,0.00,,---,0.04,VWS V14.01,2013-02-11 17:19:00,
2013-02-11 12:24:00,59.6,57.3,30.02,SW,217,4.0,8.0,92,0.00,,---,0.04,VWS V14.01,2013-02-11 17:24:00,
2013-02-11 12:29:00,59.7,57.1,30.02,SW,214,2.0,8.0,91,0.00,,---,0.04,VWS V14.01,2013-02-11 17:29:00,
2013-02-11 12:34:00,59.8,57.2,30.02,SSW,208,3.0,4.0,91,0.00,,---,0.04,VWS V14.01,2013-02-11 17:34:00,
2013-02-11 12:39:00,59.9,57.3,30.02,SW,229,2.0,6.0,91,0.00,,---,0.04,VWS V14.01,2013-02-11 17:39:00,
2013-02-11 12:44:00,59.9,57.3,30.01,SW,232,1.0,6.0,91,0.00,,---,0.04,VWS V14.01,2013-02-11 17:44:00,
2013-02-11 12:49:00,60.0,57.4,30.01,WSW,246,3.0,6.0,91,0.00,,---,0.04,VWS V14.01,2013-02-11 17:49:00,
2013-02-11 12:54:00,60.1,57.5,30.01,WSW,254,2.0,6.0,91,0.00,,---,0.04,VWS V14.01,2013-02-11 17:54:00,
2013-02-11 12:59:00,60.2,57.6,30.01,West,260,1.0,6.0,91,0.00,,---,0.04,VWS V14.01,2013-02-11 17:59:00,
2013-02-11 13:04:00,60.3,57.7,30.02,SW,231,2.0,4.0,91,0.00,,---,0.04,VWS V14.01,2013-02-11 18:04:00,
2013-02-11 13:09:00,60.4,57.8,30.01,SSW,213,3.0,4.0,91,0.00,,---,0.04,VWS V14.01,2013-02-11 18:09:00,
2013-02-11 13:14:00,60.4,57.5,30.01,SW,234,2.0,6.0,90,0.00,,---,0.04,VWS V14.01,2013-02-11 18:14:00,
2013-02-11 13:19:00,60.5,57.6,30.01,SW,232,2.0,6.0,90,0.00,,---,0.04,VWS V14.01,2013-02-11 18:19:00,
2013-02-11 13:24:00,60.5,57.6,30.00,SW,219,0.0,6.0,90,0.00,,---,0.04,VWS V14.01,2013-02-11 18:24:00,
2013-02-11 13:29:00,60.5,57.6,30.00,SSW,213,4.0,6.0,90,0.00,,---,0.04,VWS V14.01,2013-02-11 18:29:00,
2013-02-11 13:34:00,60.5,57.9,30.00,West,267,4.0,5.0,91,0.00,,---,0.04,VWS V14.01,2013-02-11 18:34:00,
2013-02-11 13:39:00,60.5,57.9,30.00,WSW,244,2.0,5.0,91,0.00,,---,0.04,VWS V14.01,2013-02-11 18:39:00,
2013-02-11 13:44:00,60.5,57.9,30.00,SW,223,2.0,5.0,91,0.00,,---,0.04,VWS V14.01,2013-02-11 18:44:00,
2013-02-11 13:49:00,60.5,57.9,29.99,WSW,238,1.0,5.0,91,0.00,,---,0.04,VWS V14.01,2013-02-11 18:49:00,
2013-02-11 13:54:00,60.5,57.9,29.99,SSW,193,2.0,6.0,91,0.00,,---,0.04,VWS V14.01,2013-02-11 18:54:00,
2013-02-11 13:59:00,60.5,57.9,29.98,South,187,4.0,7.0,91,0.00,,---,0.04,VWS V14.01,2013-02-11 18:59:00,
2013-02-11 14:04:00,60.5,57.9,29.98,South,184,3.0,4.0,91,0.00,,---,0.04,VWS V14.01,2013-02-11 19:04:00,
2013-02-11 14:09:00,60.5,57.9,29.97,South,175,4.0,4.0,91,0.00,,---,0.04,VWS V14.01,2013-02-11 19:09:00,
2013-02-11 14:14:00,60.6,58.0,29.97,South,182,5.0,7.0,91,0.00,,---,0.04,VWS V14.01,2013-02-11 19:14:00,
2013-02-11 14:19:00,60.6,58.0,29.97,WSW,242,4.0,7.0,91,0.00,,---,0.04,VWS V14.01,2013-02-11 19:19:00,
2013-02-11 14:24:00,60.7,58.1,29.97,WSW,250,3.0,7.0,91,0.00,,---,0.04,VWS V14.01,2013-02-11 19:24:00,
2013-02-11 14:29:00,60.7,58.1,29.97,WSW,240,2.0,7.0,91,0.00,,---,0.04,VWS V14.01,2013-02-11 19:29:00,
2013-02-11 14:34:00,60.8,58.2,29.97,SSW,205,2.0,6.0,91,0.00,,---,0.04,VWS V14.01,2013-02-11 19:34:00,
2013-02-11 14:39:00,60.9,58.0,29.98,SW,221,5.0,9.0,90,0.00,,---,0.04,VWS V14.01,2013-02-11 19:39:00,
2013-02-11 14:44:00,61.0,58.0,29.97,SSW,212,3.0,9.0,90,0.00,,---,0.04,VWS V14.01,2013-02-11 19:44:00,
2013-02-11 14:49:00,61.1,58.2,29.96,SSE,158,10.0,11.0,90,0.00,,---,0.04,VWS V14.01,2013-02-11 19:49:00,
2013-02-11 14:54:00,61.3,58.3,29.96,SE,130,5.0,11.0,90,0.00,,---,0.04,VWS V14.01,2013-02-11 19:54:00,
2013-02-11 14:59:00,61.4,58.1,29.97,West,271,4.0,11.0,89,0.00,,---,0.04,VWS V14.01,2013-02-11 19:59:00,
2013-02-11 15:04:00,61.4,58.1,29.97,SSW,192,1.0,4.0,89,0.00,,---,0.04,VWS V14.01,2013-02-11 20:04:00,
2013-02-11 15:09:00,61.5,58.2,29.97,SW,218,5.0,7.0,89,0.00,,---,0.04,VWS V14.01,2013-02-11 20:09:00,
2013-02-11 15:14:00,61.6,58.0,29.97,WSW,242,3.0,11.0,88,0.00,,---,0.04,VWS V14.01,2013-02-11 20:14:00,
2013-02-11 15:19:00,61.6,58.0,29.98,SSW,207,3.0,11.0,88,0.00,,---,0.04,VWS V14.01,2013-02-11 20:19:00,
2013-02-11 15:24:00,61.7,58.1,29.98,West,266,6.0,11.0,88,0.00,,---,0.04,VWS V14.01,2013-02-11 20:24:00,
2013-02-11 15:29:00,61.8,58.2,29.97,SW,225,2.0,11.0,88,0.00,,---,0.04,VWS V14.01,2013-02-11 20:29:00,
2013-02-11 15:34:00,61.8,57.9,29.97,South,177,4.0,4.0,87,0.00,,---,0.04,VWS V14.01,2013-02-11 20:34:00,
2013-02-11 15:39:00,61.9,58.0,29.97,SW,235,3.0,6.0,87,0.00,,---,0.04,VWS V14.01,2013-02-11 20:39:00,
2013-02-11 15:44:00,61.9,58.0,29.96,SSW,202,2.0,6.0,87,0.00,,---,0.04,VWS V14.01,2013-02-11 20:44:00,
2013-02-11 15:49:00,62.0,58.1,29.95,WSW,238,1.0,11.0,87,0.00,,---,0.04,VWS V14.01,2013-02-11 20:49:00,
2013-02-11 15:54:00,62.0,58.1,29.95,SW,215,3.0,11.0,87,0.00,,---,0.04,VWS V14.01,2013-02-11 20:54:00,
2013-02-11 15:59:00,62.1,58.2,29.94,South,178,6.0,11.0,87,0.00,,---,0.04,VWS V14.01,2013-02-11 20:59:00,
2013-02-11 16:04:00,62.2,58.3,29.95,SW,232,2.0,7.0,87,0.00,,---,0.04,VWS V14.01,2013-02-11 21:04:00,
2013-02-11 16:09:00,62.2,58.3,29.95,WSW,244,3.0,7.0,87,0.00,,---,0.04,VWS V14.01,2013-02-11 21:09:00,
2013-02-11 16:14:00,62.2,58.3,29.95,WSW,248,2.0,7.0,87,0.00,,---,0.04,VWS V14.01,2013-02-11 21:14:00,
2013-02-11 16:19:00,62.2,58.3,29.94,West,271,3.0,7.0,87,0.00,,---,0.04,VWS V14.01,2013-02-11 21:19:00,
2013-02-11 16:24:00,62.2,58.0,29.94,WSW,242,5.0,7.0,86,0.00,,---,0.04,VWS V14.01,2013-02-11 21:24:00,
2013-02-11 16:29:00,62.2,58.0,29.93,SW,229,1.0,7.0,86,0.00,,---,0.04,VWS V14.01,2013-02-11 21:29:00,
2013-02-11 16:34:00,62.3,58.1,29.93,West,259,2.0,5.0,86,0.00,,---,0.04,VWS V14.01,2013-02-11 21:34:00,
2013-02-11 16:39:00,62.3,58.1,29.94,WSW,252,1.0,6.0,86,0.00,,---,0.04,VWS V14.01,2013-02-11 21:39:00,
2013-02-11 16:44:00,62.4,58.2,29.94,SSW,213,3.0,7.0,86,0.00,,---,0.04,VWS V14.01,2013-02-11 21:44:00,
2013-02-11 16:49:00,62.4,58.2,29.94,WSW,242,4.0,7.0,86,0.00,,---,0.04,VWS V14.01,2013-02-11 21:49:00,
2013-02-11 16:54:00,62.4,58.2,29.94,WSW,250,1.0,7.0,86,0.00,,---,0.04,VWS V14.01,2013-02-11 21:54:00,
2013-02-11 16:59:00,62.4,58.2,29.94,South,184,2.0,7.0,86,0.00,,---,0.04,VWS V14.01,2013-02-11 21:59:00,
2013-02-11 17:04:00,62.4,57.8,29.94,WSW,244,4.0,4.0,85,0.00,,---,0.04,VWS V14.01,2013-02-11 22:04:00,
2013-02-11 17:09:00,62.3,57.7,29.94,SW,216,2.0,6.0,85,0.00,,---,0.04,VWS V14.01,2013-02-11 22:09:00,
2013-02-11 17:14:00,62.3,57.7,29.95,WSW,242,2.0,6.0,85,0.00,,---,0.04,VWS V14.01,2013-02-11 22:14:00,
2013-02-11 17:19:00,62.3,57.7,29.95,NW,310,9.0,9.0,85,0.00,,---,0.04,VWS V14.01,2013-02-11 22:19:00,
2013-02-11 17:24:00,62.4,57.8,29.95,WSW,237,4.0,12.0,85,0.00,,---,0.04,VWS V14.01,2013-02-11 22:24:00,
2013-02-11 17:29:00,62.4,57.8,29.95,South,180,2.0,12.0,85,0.00,,---,0.04,VWS V14.01,2013-02-11 22:29:00,
2013-02-11 17:34:00,62.4,57.8,29.95,SW,234,3.0,5.0,85,0.00,,---,0.04,VWS V14.01,2013-02-11 22:34:00,
2013-02-11 17:39:00,62.3,57.7,29.95,SW,229,3.0,5.0,85,0.00,,---,0.04,VWS V14.01,2013-02-11 22:39:00,
2013-02-11 17:44:00,62.3,57.7,29.95,West,262,3.0,6.0,85,0.00,,---,0.04,VWS V14.01,2013-02-11 22:44:00,
2013-02-11 17:49:00,62.3,57.7,29.95,SSW,211,0.0,6.0,85,0.00,,---,0.04,VWS V14.01,2013-02-11 22:49:00,
2013-02-11 17:54:00,62.2,57.6,29.95,SSW,200,1.0,6.0,85,0.00,,---,0.04,VWS V14.01,2013-02-11 22:54:00,
2013-02-11 17:59:00,62.2,57.6,29.95,SW,230,3.0,6.0,85,0.00,,---,0.04,VWS V14.01,2013-02-11 22:59:00,
2013-02-11 18:04:00,62.2,57.6,29.95,WSW,243,3.0,4.0,85,0.00,,---,0.04,VWS V14.01,2013-02-11 23:04:00,
2013-02-11 18:09:00,62.1,57.5,29.95,ESE,116,3.0,6.0,85,0.00,,---,0.04,VWS V14.01,2013-02-11 23:09:00,
2013-02-11 18:14:00,62.1,57.5,29.96,SW,227,3.0,6.0,85,0.00,,---,0.04,VWS V14.01,2013-02-11 23:14:00,
2013-02-11 18:19:00,62.1,57.5,29.95,SW,220,1.0,6.0,85,0.00,,---,0.04,VWS V14.01,2013-02-11 23:19:00,
2013-02-11 18:24:00,62.0,57.5,29.96,South,190,4.0,6.0,85,0.00,,---,0.04,VWS V14.01,2013-02-11 23:24:00,
2013-02-11 18:29:00,62.0,57.5,29.95,WSW,251,4.0,6.0,85,0.00,,---,0.04,VWS V14.01,2013-02-11 23:29:00,
2013-02-11 18:34:00,62.0,57.5,29.96,SW,234,2.0,5.0,85,0.00,,---,0.04,VWS V14.01,2013-02-11 23:34:00,
2013-02-11 18:39:00,62.0,57.5,29.95,WSW,244,2.0,6.0,85,0.00,,---,0.04,VWS V14.01,2013-02-11 23:39:00,
2013-02-11 18:44:00,62.0,57.5,29.95,SW,220,1.0,6.0,85,0.00,,---,0.04,VWS V14.01,2013-02-11 23:44:00,
2013-02-11 18:49:00,61.9,57.3,29.95,West,265,3.0,6.0,85,0.00,,---,0.04,VWS V14.01,2013-02-11 23:49:00,
2013-02-11 18:54:00,61.9,57.3,29.95,WSW,243,2.0,6.0,85,0.00,,---,0.04,VWS V14.01,2013-02-11 23:54:00,
2013-02-11 18:59:00,61.9,57.0,29.96,WSW,242,3.0,6.0,84,0.00,,---,0.04,VWS V14.01,2013-02-11 23:59:00,
2013-02-11 19:04:00,61.8,57.2,29.96,SW,234,2.0,4.0,85,0.00,,---,0.04,VWS V14.01,2013-02-12 00:04:00,
2013-02-11 19:09:00,61.8,57.2,29.95,SSW,204,1.0,6.0,85,0.00,,---,0.04,VWS V14.01,2013-02-12 00:09:00,
2013-02-11 19:14:00,61.8,56.9,29.95,West,260,3.0,7.0,84,0.00,,---,0.04,VWS V14.01,2013-02-12 00:14:00,
2013-02-11 19:19:00,61.8,56.9,29.95,WSW,251,2.0,7.0,84,0.00,,---,0.04,VWS V14.01,2013-02-12 00:19:00,
2013-02-11 19:24:00,61.8,56.9,29.95,SSE,166,3.0,7.0,84,0.00,,---,0.04,VWS V14.01,2013-02-12 00:24:00,
2013-02-11 19:29:00,61.7,56.8,29.96,WSW,238,3.0,7.0,84,0.00,,---,0.04,VWS V14.01,2013-02-12 00:29:00,
2013-02-11 19:34:00,61.6,56.7,29.96,West,265,1.0,3.0,84,0.00,,---,0.04,VWS V14.01,2013-02-12 00:34:00,
2013-02-11 19:39:00,61.5,56.6,29.97,WNW,302,4.0,5.0,84,0.00,,---,0.04,VWS V14.01,2013-02-12 00:39:00,
2013-02-11 19:44:00,61.5,56.6,29.97,WNW,282,3.0,6.0,84,0.00,,---,0.04,VWS V14.01,2013-02-12 00:44:00,
2013-02-11 19:49:00,61.4,56.5,29.98,South,169,2.0,6.0,84,0.00,,---,0.04,VWS V14.01,2013-02-12 00:49:00,
2013-02-11 19:54:00,61.4,56.5,29.97,WSW,251,5.0,6.0,84,0.00,,---,0.04,VWS V14.01,2013-02-12 00:54:00,
2013-02-11 19:59:00,61.4,56.5,29.98,SSE,167,2.0,6.0,84,0.00,,---,0.04,VWS V14.01,2013-02-12 00:59:00,
2013-02-11 20:04:00,61.4,56.5,29.97,South,177,1.0,4.0,84,0.00,,---,0.04,VWS V14.01,2013-02-12 01:04:00,
2013-02-11 20:09:00,61.4,56.5,29.96,NNW,348,3.0,7.0,84,0.00,,---,0.04,VWS V14.01,2013-02-12 01:09:00,
2013-02-11 20:14:00,61.3,56.4,29.96,West,265,1.0,7.0,84,0.00,,---,0.04,VWS V14.01,2013-02-12 01:14:00,
2013-02-11 20:19:00,61.2,56.3,29.96,WSW,240,2.0,7.0,84,0.00,,---,0.04,VWS V14.01,2013-02-12 01:19:00,
2013-02-11 20:24:00,61.1,56.2,29.96,SW,217,1.0,7.0,84,0.00,,---,0.04,VWS V14.01,2013-02-12 01:24:00,
2013-02-11 20:29:00,61.0,56.1,29.96,SW,231,2.0,10.0,84,0.00,,---,0.04,VWS V14.01,2013-02-12 01:29:00,
2013-02-11 20:34:00,60.9,56.0,29.96,WSW,244,3.0,3.0,84,0.00,,---,0.04,VWS V14.01,2013-02-12 01:34:00,
2013-02-11 20:39:00,60.8,55.9,29.96,West,276,1.0,5.0,84,0.00,,---,0.04,VWS V14.01,2013-02-12 01:39:00,
2013-02-11 20:44:00,60.6,55.8,29.96,WSW,249,4.0,5.0,84,0.00,,---,0.04,VWS V14.01,2013-02-12 01:44:00,
2013-02-11 20:49:00,60.6,56.1,29.96,West,280,1.0,5.0,85,0.00,,---,0.04,VWS V14.01,2013-02-12 01:49:00,
2013-02-11 20:54:00,60.5,55.7,29.96,SW,230,2.0,5.0,84,0.00,,---,0.04,VWS V14.01,2013-02-12 01:54:00,
2013-02-11 20:59:00,60.3,55.8,29.96,NW,317,1.0,5.0,85,0.00,,---,0.04,VWS V14.01,2013-02-12 01:59:00,
2013-02-11 21:04:00,60.2,55.7,29.96,WSW,255,1.0,3.0,85,0.00,,---,0.04,VWS V14.01,2013-02-12 02:04:00,
2013-02-11 21:09:00,60.2,55.7,29.96,West,261,4.0,6.0,85,0.00,,---,0.04,VWS V14.01,2013-02-12 02:09:00,
2013-02-11 21:14:00,60.1,55.6,29.96,WSW,252,3.0,6.0,85,0.00,,---,0.04,VWS V14.01,2013-02-12 02:14:00,
2013-02-11 21:19:00,60.0,55.5,29.96,WSW,248,2.0,6.0,85,0.00,,---,0.04,VWS V14.01,2013-02-12 02:19:00,
2013-02-11 21:24:00,60.0,55.5,29.96,WSW,246,1.0,6.0,85,0.00,,---,0.04,VWS V14.01,2013-02-12 02:24:00,
2013-02-11 21:29:00,59.9,55.4,29.96,WSW,252,2.0,6.0,85,0.00,,---,0.04,VWS V14.01,2013-02-12 02:29:00,
2013-02-11 21:34:00,59.8,55.6,29.96,WSW,246,2.0,4.0,86,0.00,,---,0.04,VWS V14.01,2013-02-12 02:34:00,
2013-02-11 21:39:00,59.7,55.5,29.96,WSW,243,2.0,5.0,86,0.00,,---,0.04,VWS V14.01,2013-02-12 02:39:00,
2013-02-11 21:44:00,59.6,55.4,29.95,WSW,239,2.0,5.0,86,0.00,,---,0.04,VWS V14.01,2013-02-12 02:44:00,
2013-02-11 21:49:00,59.5,55.3,29.95,WSW,252,2.0,5.0,86,0.00,,---,0.04,VWS V14.01,2013-02-12 02:49:00,
2013-02-11 21:54:00,59.4,55.5,29.95,West,265,0.0,5.0,87,0.00,,---,0.04,VWS V14.01,2013-02-12 02:54:00,
2013-02-11 21:59:00,59.3,55.4,29.95,WSW,244,3.0,5.0,87,0.00,,---,0.04,VWS V14.01,2013-02-12 02:59:00,
2013-02-11 22:04:00,59.1,55.2,29.95,West,261,3.0,3.0,87,0.00,,---,0.04,VWS V14.01,2013-02-12 03:04:00,
2013-02-11 22:09:00,59.0,55.1,29.95,WSW,238,1.0,4.0,87,0.00,,---,0.04,VWS V14.01,2013-02-12 03:09:00,
2013-02-11 22:14:00,59.0,55.1,29.96,West,271,3.0,6.0,87,0.00,,---,0.04,VWS V14.01,2013-02-12 03:14:00,
2013-02-11 22:19:00,59.0,55.1,29.95,WSW,253,4.0,6.0,87,0.00,,---,0.04,VWS V14.01,2013-02-12 03:19:00,
2013-02-11 22:24:00,59.0,55.1,29.95,West,263,3.0,6.0,87,0.00,,---,0.04,VWS V14.01,2013-02-12 03:24:00,
2013-02-11 22:29:00,58.9,55.0,29.95,West,266,2.0,6.0,87,0.00,,---,0.04,VWS V14.01,2013-02-12 03:29:00,
2013-02-11 22:34:00,58.7,54.8,29.95,West,267,3.0,5.0,87,0.00,,---,0.04,VWS V14.01,2013-02-12 03:34:00,
2013-02-11 22:39:00,58.7,54.8,29.96,West,274,4.0,5.0,87,0.00,,---,0.04,VWS V14.01,2013-02-12 03:39:00,
2013-02-11 22:44:00,58.6,54.8,29.95,WNW,282,2.0,5.0,87,0.00,,---,0.04,VWS V14.01,2013-02-12 03:44:00,
2013-02-11 22:49:00,58.5,54.7,29.95,WSW,242,1.0,5.0,87,0.00,,---,0.04,VWS V14.01,2013-02-12 03:49:00,
2013-02-11 22:54:00,58.5,54.7,29.95,SSW,205,4.0,5.0,87,0.00,,---,0.04,VWS V14.01,2013-02-12 03:54:00,
2013-02-11 22:59:00,58.4,54.5,29.95,West,279,4.0,5.0,87,0.00,,---,0.04,VWS V14.01,2013-02-12 03:59:00,
2013-02-11 23:04:00,58.2,54.4,29.95,WSW,250,2.0,4.0,87,0.01,,---,0.05,VWS V14.01,2013-02-12 04:04:00,
2013-02-11 23:09:00,58.1,54.3,29.95,West,279,2.0,6.0,87,0.01,,---,0.05,VWS V14.01,2013-02-12 04:09:00,
2013-02-11 23:14:00,58.0,54.2,29.95,West,272,2.0,6.0,87,0.01,,---,0.05,VWS V14.01,2013-02-12 04:14:00,
2013-02-11 23:19:00,57.9,54.1,29.95,SW,222,3.0,6.0,87,0.01,,---,0.05,VWS V14.01,2013-02-12 04:19:00,
2013-02-11 23:24:00,57.8,54.0,29.95,West,276,2.0,6.0,87,0.01,,---,0.05,VWS V14.01,2013-02-12 04:24:00,
2013-02-11 23:29:00,57.7,53.9,29.95,West,266,2.0,6.0,87,0.01,,---,0.05,VWS V14.01,2013-02-12 04:29:00,
2013-02-11 23:34:00,57.6,53.8,29.95,WSW,244,3.0,5.0,87,0.01,,---,0.05,VWS V14.01,2013-02-12 04:34:00,
2013-02-11 23:39:00,57.5,53.7,29.95,WSW,258,2.0,5.0,87,0.01,,---,0.05,VWS V14.01,2013-02-12 04:39:00,
2013-02-11 23:44:00,57.4,53.6,29.95,West,277,1.0,5.0,87,0.01,,---,0.05,VWS V14.01,2013-02-12 04:44:00,
2013-02-11 23:49:00,57.3,53.5,29.95,WSW,248,2.0,5.0,87,0.01,,---,0.05,VWS V14.01,2013-02-12 04:49:00,
2013-02-11 23:54:00,57.2,53.4,29.95,WSW,257,2.0,5.0,87,0.01,,---,0.05,VWS V14.01,2013-02-12 04:54:00,
2013-02-11 23:59:00,57.1,53.3,29.95,SW,236,2.0,5.0,87,0.01,,---,0.05,VWS V14.01,2013-02-12 04:59:00,